Ionia, MI

11:34 PM EST on November 14, 2019 (GMT -0500)
Ionia

Weather History for KY70 - September, 2019

Change the Weather History Date:

Sunday, September 29, 2019

  Actual Average (KGRR) Record (KGRR)
Temperature  
Mean Temperature 55 °F -  
Max Temperature 59 °F 66 °F 93 °F (1953)
Min Temperature 51 °F 44 °F 29 °F (1942)
Degree Days  
Heating Degree Days 10    
Growing Degree Days 5 (Base 50)    
Moisture  
Dew Point 54 °F    
Average Humidity 95    
Maximum Humidity 100    
Minimum Humidity 88    
Precipitation  
Precipitation 0.62 in - - ()
Sea Level Pressure  
Sea Level Pressure 30.27 in    
Wind  
Wind Speed 7 mph ()    
Max Wind Speed 15 mph    
Max Gust Speed 22 mph    
Visibility 7.2 miles    
Events Rain    
Averages and records for this station are not official NWS values.
T = Trace of Precipitation, MM = Missing Value Source: Averaged Metar Reports

Daily Weather History Graph

Daily Weather History Graph

Search for Another Location

Airport or City:

Astronomy

Sep. 29, 2019 Rise Set
Actual Time 7:35 AM EDT 7:25 PM EDT
Civil Twilight 7:06 AM EDT 7:53 PM EDT
Nautical Twilight 6:33 AM EDT 8:26 PM EDT
Astronomical Twilight 6:00 AM EDT 8:59 PM EDT
Moon 8:24 AM EDT (9/29) 8:24 PM EDT (9/29)
Length of Visible Light 12h 46m
Length of Day
11h 50m
New Moon, 1% of the Moon is Illuminated
Sep 29
New Moon
Oct 5
First Quarter
Oct 13
Full
Oct 21
Last Quarter
Oct 27
New

Hourly Weather History & Observations

Time (EDT) Temp. Dew Point Humidity Pressure Visibility Wind Dir Wind Speed Gust Speed Precip Events Conditions
12:11 AM 53.6 °F 51.8 °F 94% 30.29 in 10.0 mi East 4.6 mph - N/A   Clear
12:31 AM 53.6 °F 51.8 °F 94% 30.29 in 10.0 mi East 4.6 mph - N/A   Clear
12:51 AM 53.6 °F 51.8 °F 94% 30.29 in 10.0 mi ENE 4.6 mph - N/A   Clear
1:14 AM 53.6 °F 51.8 °F 94% 30.29 in 10.0 mi ENE 5.8 mph - N/A   Clear
1:31 AM 53.6 °F 51.8 °F 94% 30.29 in 10.0 mi East 4.6 mph - N/A   Clear
1:52 AM 53.6 °F 51.8 °F 94% 30.29 in 10.0 mi ENE 4.6 mph - N/A   Clear
2:11 AM 53.6 °F 51.8 °F 94% 30.30 in 10.0 mi ENE 5.8 mph - N/A   Clear
2:32 AM 53.6 °F 51.8 °F 94% 30.30 in 10.0 mi ENE 5.8 mph - N/A   Clear
2:51 AM 53.6 °F 51.8 °F 94% 30.30 in 10.0 mi ENE 8.1 mph - N/A   Clear
3:11 AM 53.6 °F 51.8 °F 94% 30.28 in 10.0 mi ENE 9.2 mph - N/A   Clear
3:31 AM 53.6 °F 51.8 °F 94% 30.27 in 10.0 mi ENE 10.4 mph - N/A   Mostly Cloudy
3:53 AM 53.6 °F 51.8 °F 94% 30.27 in 10.0 mi East 9.2 mph - N/A   Scattered Clouds
4:13 AM 53.6 °F 51.8 °F 94% 30.28 in 10.0 mi East 8.1 mph - N/A   Scattered Clouds
4:31 AM 53.6 °F 51.8 °F 94% 30.28 in 10.0 mi East 8.1 mph - N/A   Overcast
5:11 AM 53.6 °F 51.8 °F 94% 30.29 in 10.0 mi ENE 5.8 mph - N/A   Mostly Cloudy
5:32 AM 51.8 °F 50.0 °F 94% 30.30 in 10.0 mi East 4.6 mph - N/A   Scattered Clouds
5:55 AM 51.8 °F 50.0 °F 94% 30.29 in 10.0 mi ENE 9.2 mph - N/A   Scattered Clouds
6:31 AM 51.8 °F 50.0 °F 94% 30.29 in 10.0 mi ENE 9.2 mph - N/A   Overcast
6:52 AM 51.8 °F 50.0 °F 94% 30.29 in 10.0 mi ENE 8.1 mph - N/A   Mostly Cloudy
7:12 AM 51.8 °F 50.0 °F 94% 30.28 in 10.0 mi ENE 10.4 mph 16.1 mph N/A   Mostly Cloudy
7:31 AM 53.6 °F 50.0 °F 88% 30.29 in 10.0 mi ENE 6.9 mph - N/A   Overcast
7:52 AM 53.6 °F 51.8 °F 94% 30.30 in 10.0 mi ENE 8.1 mph - N/A   Overcast
8:11 AM 53.6 °F 51.8 °F 94% 30.31 in 10.0 mi ENE 9.2 mph - N/A   Mostly Cloudy
8:32 AM 53.6 °F 51.8 °F 94% 30.31 in 10.0 mi ENE 6.9 mph - N/A   Mostly Cloudy
8:51 AM 53.6 °F 51.8 °F 94% 30.33 in 10.0 mi East 5.8 mph - N/A   Overcast
9:11 AM 53.6 °F 51.8 °F 94% 30.32 in 10.0 mi ENE 8.1 mph - N/A   Overcast
9:31 AM 53.6 °F 51.8 °F 94% 30.34 in 10.0 mi NNE 5.8 mph - N/A Rain Light Rain
9:51 AM 53.6 °F 51.8 °F 94% 30.37 in 7.0 mi North 4.6 mph - 0.01 in Rain Rain
10:31 AM 53.6 °F 51.8 °F 94% 30.35 in 3.0 mi North - - 0.21 in Rain Heavy Rain
10:51 AM 53.6 °F 51.8 °F 94% 30.34 in 2.0 mi ENE 13.8 mph 19.6 mph 0.32 in Rain Heavy Rain
11:11 AM 53.6 °F 51.8 °F 94% 30.33 in 7.0 mi ENE 13.8 mph 17.3 mph 0.02 in Rain Rain
11:32 AM 53.6 °F 53.6 °F 100% 30.32 in 7.0 mi ENE 11.5 mph 19.6 mph 0.04 in Rain Light Rain
11:51 AM 55.4 °F 53.6 °F 94% 30.31 in 10.0 mi ENE 13.8 mph 20.7 mph 0.04 in Rain Light Rain
12:11 PM 55.4 °F 53.6 °F 94% 30.31 in 5.0 mi ENE 10.4 mph 20.7 mph 0.01 in Rain Rain
12:31 PM 55.4 °F 53.6 °F 94% 30.31 in 2.5 mi ENE 9.2 mph - 0.07 in Rain Rain
12:51 PM 55.4 °F 53.6 °F 94% 30.29 in 7.0 mi ENE 12.7 mph 17.3 mph 0.09 in Rain Light Rain
1:11 PM 55.4 °F 53.6 °F 94% 30.28 in 3.0 mi ENE 15.0 mph 20.7 mph N/A Rain Light Rain
1:32 PM 55.4 °F 53.6 °F 94% 30.27 in 7.0 mi NE 10.4 mph 17.3 mph 0.01 in   Light Drizzle
1:51 PM 55.4 °F 53.6 °F 94% 30.27 in 7.0 mi ENE 12.7 mph 21.9 mph 0.01 in Rain Rain
2:11 PM 55.4 °F 53.6 °F 94% 30.26 in 7.0 mi ENE 12.7 mph 19.6 mph 0.01 in Rain Light Rain
2:31 PM 55.4 °F 53.6 °F 94% 30.26 in 7.0 mi East 11.5 mph 17.3 mph 0.03 in Rain Light Rain
2:52 PM 55.4 °F 53.6 °F 94% 30.26 in 7.0 mi East 10.4 mph - 0.05 in Rain Light Rain
3:11 PM 55.4 °F 55.4 °F 100% 30.24 in 5.0 mi East 9.2 mph - 0.01 in Rain Rain
3:31 PM 57.2 °F 55.4 °F 94% 30.24 in 5.0 mi ENE 11.5 mph 16.1 mph 0.02 in Rain Rain
3:51 PM 57.2 °F 55.4 °F 94% 30.24 in 5.0 mi East 8.1 mph 18.4 mph 0.02 in   Drizzle
4:11 PM 57.2 °F 55.4 °F 94% 30.24 in 5.0 mi East 6.9 mph - 0.01 in   Heavy Drizzle
4:31 PM 57.2 °F 55.4 °F 94% 30.24 in 5.0 mi East 10.4 mph - 0.03 in Rain Light Rain
4:51 PM 57.2 °F 55.4 °F 94% 30.23 in 4.0 mi ENE 9.2 mph - 0.04 in Rain Light Rain
5:11 PM 57.2 °F 55.4 °F 94% 30.22 in 3.0 mi ENE 9.2 mph - 0.01 in Rain Light Rain
5:31 PM 57.2 °F 55.4 °F 94% 30.22 in 4.0 mi East 9.2 mph - 0.01 in   Drizzle
5:51 PM 57.2 °F 55.4 °F 94% 30.22 in 3.0 mi East 9.2 mph - 0.02 in   Heavy Drizzle
6:11 PM 57.2 °F 55.4 °F 94% 30.22 in 2.5 mi East 6.9 mph - N/A   Drizzle
6:31 PM 57.2 °F 55.4 °F 94% 30.22 in 2.5 mi ENE 6.9 mph - 0.01 in   Drizzle
7:13 PM 57.2 °F 55.4 °F 94% 30.22 in 5.0 mi ENE 5.8 mph - N/A Rain Light Rain
7:32 PM 57.2 °F 57.2 °F 100% 30.22 in 5.0 mi East 6.9 mph - 0.01 in   Overcast
7:51 PM 57.2 °F 57.2 °F 100% 30.22 in 5.0 mi East 9.2 mph - 0.01 in   Overcast
8:12 PM 57.2 °F 57.2 °F 100% 30.21 in 5.0 mi East 8.1 mph - N/A   Overcast
8:31 PM 57.2 °F 57.2 °F 100% 30.21 in 5.0 mi East 6.9 mph - N/A   Overcast
8:51 PM 57.2 °F 57.2 °F 100% 30.21 in 5.0 mi East 6.9 mph - N/A   Overcast
9:12 PM 57.2 °F 57.2 °F 100% 30.21 in 7.0 mi East 8.1 mph - N/A   Overcast
9:32 PM 57.2 °F 57.2 °F 100% 30.21 in 7.0 mi East 9.2 mph - N/A   Overcast
9:51 PM 59.0 °F 57.2 °F 94% 30.21 in 5.0 mi East 6.9 mph - N/A   Overcast
10:11 PM 57.2 °F 57.2 °F 100% 30.20 in 5.0 mi East 6.9 mph - N/A   Overcast
10:31 PM 59.0 °F 57.2 °F 94% 30.20 in 5.0 mi East 8.1 mph - N/A   Overcast
10:51 PM 59.0 °F 57.2 °F 94% 30.19 in 5.0 mi East 8.1 mph - N/A   Overcast
11:11 PM 57.2 °F 57.2 °F 100% 30.19 in 3.0 mi East 8.1 mph - N/A   Overcast
11:32 PM 57.2 °F 57.2 °F 100% 30.20 in 7.0 mi East 5.8 mph - N/A   Overcast
11:51 PM 57.2 °F 57.2 °F 100% 30.20 in 10.0 mi East 6.9 mph - N/A   Overcast